DAL1826 EGLL-KJFK

Flight info

Callsign DAL1826
Flight time N/A
Altitude 36000
Route CPT L9 BUCGO DCT FELCA DCT OFSOX DCT BANBA DCT TOBOR/M081F370 NATC ELSIR/N0459F380 N402C ALLEX DCT ENE PARCH4
Aircraft A339/H-SADE1E2E3GHIJ3J5M1P2RWXY/LB2D1

Departure

Time 2026-05-06 15:37
Airport London Heathrow Airport (EGLL)

Arrival

Time N/A
Airport John F. Kennedy International Airport (KJFK)
Time Latitude Longitude Altitude Speed Heading
2026-05-06 15:09 51.47252 -0.44395 92 ft 0 kts 89°
2026-05-06 15:15 51.47252 -0.44396 92 ft 0 kts 89°
2026-05-06 15:24 51.47251 -0.44414 94 ft 0 kts 89°
2026-05-06 15:24 51.47251 -0.44457 92 ft 0 kts 90°
2026-05-06 15:25 51.47251 -0.44496 92 ft 0 kts 92°
2026-05-06 15:25 51.47252 -0.44533 92 ft 0 kts 128°
2026-05-06 15:25 51.47266 -0.44556 92 ft 0 kts 173°
2026-05-06 15:25 51.47291 -0.44558 91 ft 0 kts 180°
2026-05-06 15:26 51.47293 -0.44558 91 ft 0 kts 180°
2026-05-06 15:26 51.47294 -0.44558 91 ft 0 kts 180°
2026-05-06 15:27 51.47292 -0.44558 91 ft 1 kts 180°
2026-05-06 15:27 51.47268 -0.44558 92 ft 6 kts 180°
2026-05-06 15:28 51.47209 -0.44557 92 ft 11 kts 179°
2026-05-06 15:28 51.47128 -0.44556 93 ft 12 kts 179°
2026-05-06 15:28 51.47040 -0.44555 95 ft 14 kts 179°
2026-05-06 15:28 51.46933 -0.44554 92 ft 16 kts 179°
2026-05-06 15:29 51.46849 -0.44553 94 ft 10 kts 180°
2026-05-06 15:29 51.46783 -0.44557 96 ft 9 kts 187°
2026-05-06 15:29 51.46751 -0.44626 96 ft 8 kts 262°
2026-05-06 15:29 51.46751 -0.44730 92 ft 11 kts 269°
2026-05-06 15:30 51.46751 -0.44864 92 ft 12 kts 270°
2026-05-06 15:30 51.46750 -0.45021 92 ft 16 kts 270°
2026-05-06 15:30 51.46752 -0.45206 92 ft 18 kts 271°
2026-05-06 15:30 51.46750 -0.45400 92 ft 18 kts 269°
2026-05-06 15:31 51.46749 -0.45617 92 ft 20 kts 270°
2026-05-06 15:31 51.46749 -0.45844 92 ft 20 kts 270°
2026-05-06 15:31 51.46748 -0.46067 95 ft 20 kts 270°
2026-05-06 15:32 51.46748 -0.46504 95 ft 19 kts 270°
2026-05-06 15:32 51.46748 -0.46718 95 ft 19 kts 269°
2026-05-06 15:32 51.46747 -0.46930 95 ft 19 kts 269°
2026-05-06 15:32 51.46746 -0.47140 95 ft 19 kts 270°
2026-05-06 15:33 51.46746 -0.47348 95 ft 19 kts 270°
2026-05-06 15:33 51.46745 -0.47555 95 ft 19 kts 270°
2026-05-06 15:33 51.46745 -0.47762 92 ft 18 kts 269°
2026-05-06 15:33 51.46744 -0.47967 92 ft 18 kts 270°
2026-05-06 15:34 51.46743 -0.48172 92 ft 18 kts 270°
2026-05-06 15:34 51.46743 -0.48375 92 ft 18 kts 269°
2026-05-06 15:34 51.46741 -0.48577 92 ft 14 kts 269°
2026-05-06 15:34 51.46738 -0.48697 92 ft 11 kts 258°
2026-05-06 15:35 51.46683 -0.48747 95 ft 9 kts 188°
2026-05-06 15:35 51.46616 -0.48760 95 ft 10 kts 193°
2026-05-06 15:35 51.46539 -0.48782 95 ft 13 kts 176°
2026-05-06 15:35 51.46479 -0.48689 96 ft 12 kts 109°
2026-05-06 15:36 51.46477 -0.48611 95 ft 0 kts 89°
2026-05-06 15:36 51.46477 -0.48608 95 ft 5 kts 89°
2026-05-06 15:36 51.46480 -0.48106 93 ft 85 kts 89°
2026-05-06 15:36 51.46484 -0.46759 95 ft 153 kts 89°
2026-05-06 15:37 51.46475 -0.44832 330 ft 186 kts 87°
2026-05-06 15:37 51.46446 -0.42654 850 ft 204 kts 89°
2026-05-06 15:37 51.46373 -0.40299 1399 ft 218 kts 91°
2026-05-06 15:37 51.46245 -0.37816 1976 ft 228 kts 92°
2026-05-06 15:38 51.45895 -0.35324 2393 ft 249 kts 111°
2026-05-06 15:38 51.44771 -0.33040 2772 ft 267 kts 141°
2026-05-06 15:38 51.43117 -0.31822 3399 ft 269 kts 168°
2026-05-06 15:38 51.41233 -0.31863 3893 ft 275 kts 195°
2026-05-06 15:39 51.39541 -0.33233 4514 ft 274 kts 220°
2026-05-06 15:39 51.38067 -0.35146 5216 ft 272 kts 221°
2026-05-06 15:39 51.36585 -0.37072 5829 ft 274 kts 221°
2026-05-06 15:39 51.35110 -0.39006 6425 ft 278 kts 221°
2026-05-06 15:40 51.33590 -0.40961 6957 ft 280 kts 221°
2026-05-06 15:40 51.32097 -0.42960 7551 ft 280 kts 230°
2026-05-06 15:40 51.31113 -0.45584 8117 ft 276 kts 256°
2026-05-06 15:40 51.30945 -0.48599 8669 ft 274 kts 281°
2026-05-06 15:41 51.31485 -0.51514 9245 ft 275 kts 291°
2026-05-06 15:41 51.32106 -0.54403 9879 ft 276 kts 291°
2026-05-06 15:41 51.32747 -0.57352 10220 ft 289 kts 291°
2026-05-06 15:41 51.33517 -0.60431 10388 ft 306 kts 294°
2026-05-06 15:42 51.34362 -0.63655 10545 ft 322 kts 294°
2026-05-06 15:42 51.35237 -0.66997 10945 ft 328 kts 294°
2026-05-06 15:42 51.36106 -0.70354 11618 ft 325 kts 293°
2026-05-06 15:42 51.36978 -0.73742 12004 ft 332 kts 293°
2026-05-06 15:43 51.37849 -0.77152 12612 ft 333 kts 293°
2026-05-06 15:43 51.38731 -0.80607 13089 ft 336 kts 292°
2026-05-06 15:43 51.39620 -0.84103 13639 ft 338 kts 293°
2026-05-06 15:43 51.40506 -0.87588 14110 ft 342 kts 292°
2026-05-06 15:44 51.41405 -0.91126 14538 ft 344 kts 292°
2026-05-06 15:44 51.42301 -0.94659 14991 ft 344 kts 292°
2026-05-06 15:44 51.43207 -0.98236 15507 ft 345 kts 292°
2026-05-06 15:44 51.44110 -1.01811 15961 ft 348 kts 292°
2026-05-06 15:45 51.45023 -1.05430 16287 ft 354 kts 292°
2026-05-06 15:45 51.45947 -1.09094 16884 ft 353 kts 292°
2026-05-06 15:45 51.46875 -1.12782 17277 ft 357 kts 292°
2026-05-06 15:45 51.47806 -1.16484 17798 ft 357 kts 292°
2026-05-06 15:46 51.48858 -1.20109 18210 ft 361 kts 300°
2026-05-06 15:46 51.50289 -1.23427 18635 ft 364 kts 309°
2026-05-06 15:46 51.52054 -1.26365 19020 ft 367 kts 316°
2026-05-06 15:46 51.53946 -1.29159 19378 ft 371 kts 316°
2026-05-06 15:47 51.55833 -1.31995 19847 ft 371 kts 315°
2026-05-06 15:47 51.57716 -1.34845 20254 ft 374 kts 315°
2026-05-06 15:47 51.59574 -1.37795 20588 ft 377 kts 310°
2026-05-06 15:47 51.61201 -1.41108 21011 ft 378 kts 303°
2026-05-06 15:48 51.62552 -1.44741 21419 ft 379 kts 296°
2026-05-06 15:48 51.63777 -1.48517 21815 ft 382 kts 297°
2026-05-06 15:48 51.65032 -1.52301 22240 ft 384 kts 297°
2026-05-06 15:48 51.66299 -1.56096 22658 ft 386 kts 297°
2026-05-06 15:49 51.67575 -1.59924 23082 ft 388 kts 297°
2026-05-06 15:49 51.68848 -1.63769 23506 ft 390 kts 296°
2026-05-06 15:49 51.69915 -1.67798 23859 ft 392 kts 288°
2026-05-06 15:49 51.70637 -1.72042 24216 ft 393 kts 281°
2026-05-06 15:50 51.71022 -1.76409 24568 ft 395 kts 275°
2026-05-06 15:50 51.71317 -1.80819 24940 ft 397 kts 276°
2026-05-06 15:50 51.71634 -1.85260 25329 ft 399 kts 276°
2026-05-06 15:50 51.71957 -1.89710 25697 ft 401 kts 276°
2026-05-06 15:51 51.72281 -1.94194 26047 ft 403 kts 276°
2026-05-06 15:51 51.72603 -1.98700 26374 ft 406 kts 276°
2026-05-06 15:51 51.72923 -2.03231 26729 ft 407 kts 276°
2026-05-06 15:51 51.73242 -2.07773 27058 ft 409 kts 276°
2026-05-06 15:52 51.73561 -2.12344 27404 ft 411 kts 276°
2026-05-06 15:52 51.73879 -2.16937 27738 ft 413 kts 276°
2026-05-06 15:52 51.74198 -2.21552 28070 ft 415 kts 276°
2026-05-06 15:52 51.74513 -2.26158 28397 ft 417 kts 276°
2026-05-06 15:53 51.74830 -2.30813 28716 ft 418 kts 276°
2026-05-06 15:53 51.75147 -2.35493 29023 ft 420 kts 276°
2026-05-06 15:53 51.75463 -2.40189 29334 ft 422 kts 275°
2026-05-06 15:53 51.75779 -2.44910 29648 ft 423 kts 275°
2026-05-06 15:54 51.76093 -2.49642 29974 ft 425 kts 275°
2026-05-06 15:54 51.76408 -2.54399 30241 ft 427 kts 275°
2026-05-06 15:54 51.76721 -2.59170 30510 ft 429 kts 275°
2026-05-06 15:54 51.77033 -2.63959 30788 ft 430 kts 275°
2026-05-06 15:55 51.77352 -2.68885 31067 ft 432 kts 275°
2026-05-06 15:55 51.77656 -2.73609 31333 ft 434 kts 275°
2026-05-06 15:55 51.77966 -2.78459 31679 ft 434 kts 275°
2026-05-06 15:55 51.78275 -2.83312 31985 ft 436 kts 275°
2026-05-06 15:56 51.78583 -2.88194 32231 ft 438 kts 275°
2026-05-06 15:56 51.78890 -2.93090 32476 ft 439 kts 275°
2026-05-06 15:56 51.79196 -2.98008 32692 ft 441 kts 275°
2026-05-06 15:56 51.79501 -3.02943 32893 ft 442 kts 275°
2026-05-06 15:57 51.79805 -3.07894 33065 ft 443 kts 275°
2026-05-06 15:57 51.80108 -3.12858 33228 ft 445 kts 275°
2026-05-06 15:57 51.80405 -3.17769 33363 ft 446 kts 275°
2026-05-06 15:57 51.80709 -3.22823 33499 ft 447 kts 275°
2026-05-06 15:58 51.81007 -3.27808 33652 ft 447 kts 275°
2026-05-06 15:58 51.81151 -3.30237 33734 ft 446 kts 275°
2026-05-06 15:59 51.81379 -3.34096 33867 ft 446 kts 275°
2026-05-06 15:59 51.81672 -3.39083 34037 ft 446 kts 275°
2026-05-06 15:59 51.81963 -3.44068 34162 ft 446 kts 275°
2026-05-06 15:59 51.82252 -3.49060 34298 ft 446 kts 275°
2026-05-06 16:00 51.82574 -3.54044 34402 ft 446 kts 278°
2026-05-06 16:00 51.83169 -3.58964 34525 ft 446 kts 282°
2026-05-06 16:00 51.83821 -3.63877 34647 ft 447 kts 282°
2026-05-06 16:00 51.84466 -3.68792 34762 ft 447 kts 281°
2026-05-06 16:01 51.85103 -3.73708 34883 ft 447 kts 281°
2026-05-06 16:01 51.85736 -3.78620 34997 ft 448 kts 281°
2026-05-06 16:01 51.86371 -3.83570 35107 ft 448 kts 281°
2026-05-06 16:01 51.87002 -3.88507 35241 ft 448 kts 281°
2026-05-06 16:02 51.88258 -3.98400 35439 ft 449 kts 281°
2026-05-06 16:02 51.88885 -4.03358 35557 ft 450 kts 281°
2026-05-06 16:02 51.89510 -4.08317 35676 ft 450 kts 281°
2026-05-06 16:03 51.90133 -4.13286 35779 ft 450 kts 281°
2026-05-06 16:03 51.90545 -4.16576 35850 ft 450 kts 281°
2026-05-06 16:03 51.91165 -4.21549 35953 ft 451 kts 281°
2026-05-06 16:03 51.91784 -4.26527 35995 ft 451 kts 281°
2026-05-06 16:04 51.93012 -4.36466 35994 ft 450 kts 281°
2026-05-06 16:04 51.94233 -4.46427 35997 ft 451 kts 281°
2026-05-06 16:05 51.95448 -4.56404 35998 ft 451 kts 281°
2026-05-06 16:05 51.96660 -4.66401 36002 ft 453 kts 281°
2026-05-06 16:06 51.97868 -4.76444 36013 ft 454 kts 281°
2026-05-06 16:06 51.99068 -4.86515 36002 ft 454 kts 281°
2026-05-06 16:07 52.00252 -4.96556 36008 ft 453 kts 281°
2026-05-06 16:07 52.01430 -5.06617 36008 ft 453 kts 281°
2026-05-06 16:08 52.02407 -5.16721 36007 ft 454 kts 275°
2026-05-06 16:08 52.02401 -5.26976 36007 ft 455 kts 266°
2026-05-06 16:09 52.01679 -5.37187 36007 ft 455 kts 264°
2026-05-06 16:09 52.00971 -5.47402 36008 ft 455 kts 264°
2026-05-06 16:10 52.00247 -5.57612 36009 ft 456 kts 264°
2026-05-06 16:10 51.99513 -5.67750 36008 ft 456 kts 264°
2026-05-06 16:11 51.98765 -5.77934 36011 ft 456 kts 264°
2026-05-06 16:11 51.98002 -5.88131 36008 ft 456 kts 264°
2026-05-06 16:12 51.97233 -5.98343 36004 ft 456 kts 264°
2026-05-06 16:12 51.96457 -6.08561 36008 ft 457 kts 264°
2026-05-06 16:13 51.95700 -6.18796 36008 ft 457 kts 266°
2026-05-06 16:13 51.95803 -6.29056 36013 ft 455 kts 277°
2026-05-06 16:14 51.96791 -6.39187 36000 ft 456 kts 280°
2026-05-06 16:14 51.97791 -6.49343 36007 ft 457 kts 280°
2026-05-06 16:15 51.98792 -6.59526 36013 ft 457 kts 280°
2026-05-06 16:15 51.99796 -6.69718 36016 ft 458 kts 280°
2026-05-06 16:16 52.00779 -6.79862 36013 ft 458 kts 280°
2026-05-06 16:16 52.01754 -6.90086 36003 ft 459 kts 280°
2026-05-06 16:17 52.02720 -7.00337 36009 ft 460 kts 280°
2026-05-06 16:17 52.03679 -7.10598 36020 ft 460 kts 279°
2026-05-06 16:18 52.04630 -7.20883 36022 ft 460 kts 279°
2026-05-06 16:18 52.05566 -7.31169 36022 ft 460 kts 279°
2026-05-06 16:19 52.06496 -7.41469 36007 ft 461 kts 280°
2026-05-06 16:19 52.07423 -7.51790 36000 ft 462 kts 280°
2026-05-06 16:20 52.08342 -7.62121 36004 ft 462 kts 279°
2026-05-06 16:20 52.09252 -7.72475 36008 ft 462 kts 279°
2026-05-06 16:21 52.10154 -7.82830 36013 ft 463 kts 279°
2026-05-06 16:21 52.11048 -7.93205 36013 ft 463 kts 279°
2026-05-06 16:22 52.11933 -8.03591 36003 ft 464 kts 279°
2026-05-06 16:22 52.12810 -8.13988 35999 ft 464 kts 279°
2026-05-06 16:23 52.13680 -8.24389 36006 ft 464 kts 279°
2026-05-06 16:23 52.14545 -8.34797 36005 ft 464 kts 279°
2026-05-06 16:24 52.15396 -8.45212 35994 ft 464 kts 279°
2026-05-06 16:24 52.16231 -8.55638 35998 ft 465 kts 279°
2026-05-06 16:25 52.17055 -8.66007 35990 ft 465 kts 279°
2026-05-06 16:25 52.17884 -8.76526 35992 ft 465 kts 279°
2026-05-06 16:26 52.18693 -8.86909 35990 ft 465 kts 279°
2026-05-06 16:26 52.19497 -8.97383 35980 ft 466 kts 279°
2026-05-06 16:27 52.20296 -9.07864 35981 ft 467 kts 279°
2026-05-06 16:27 52.21088 -9.18374 35984 ft 467 kts 279°
2026-05-06 16:28 52.21868 -9.28886 35984 ft 467 kts 279°
2026-05-06 16:28 52.22640 -9.39411 35998 ft 467 kts 279°
2026-05-06 16:29 52.23405 -9.49936 35992 ft 468 kts 279°
2026-05-06 16:29 52.24166 -9.60495 35993 ft 468 kts 279°
2026-05-06 16:30 52.24787 -9.69263 35995 ft 468 kts 279°
2026-05-06 16:30 52.25648 -9.81600 35998 ft 468 kts 279°
2026-05-06 16:31 52.26371 -9.92118 35999 ft 468 kts 279°
2026-05-06 16:31 52.27084 -10.02692 35999 ft 469 kts 279°
2026-05-06 16:32 52.27789 -10.13288 36003 ft 470 kts 279°
2026-05-06 16:32 52.28489 -10.23893 36008 ft 470 kts 278°
2026-05-06 16:33 52.29180 -10.34507 36014 ft 470 kts 278°
2026-05-06 16:34 52.30194 -10.50369 36010 ft 469 kts 278°
2026-05-06 16:34 52.30856 -10.60923 36009 ft 467 kts 278°
2026-05-06 16:35 52.31511 -10.71479 36010 ft 467 kts 278°
2026-05-06 16:35 52.32156 -10.82046 36010 ft 467 kts 278°
2026-05-06 16:36 52.32792 -10.92622 36010 ft 467 kts 278°
2026-05-06 16:36 52.33417 -11.03189 36014 ft 467 kts 278°
2026-05-06 16:37 52.34034 -11.13764 36023 ft 467 kts 278°
2026-05-06 16:37 52.34640 -11.24335 36009 ft 467 kts 278°
2026-05-06 16:38 52.35238 -11.34913 36002 ft 467 kts 278°
2026-05-06 16:38 52.35826 -11.45495 36006 ft 467 kts 278°
2026-05-06 16:39 52.36405 -11.56074 36015 ft 467 kts 278°
2026-05-06 16:39 52.36974 -11.66652 36014 ft 467 kts 277°
2026-05-06 16:40 52.37533 -11.77240 36011 ft 467 kts 277°
2026-05-06 16:40 52.38083 -11.87823 36019 ft 467 kts 277°
2026-05-06 16:41 52.38624 -11.98412 36013 ft 467 kts 277°
2026-05-06 16:41 52.39155 -12.09003 36016 ft 467 kts 277°
2026-05-06 16:42 52.39674 -12.19546 36011 ft 463 kts 277°
2026-05-06 16:42 52.40183 -12.30079 36015 ft 464 kts 277°
2026-05-06 16:43 52.40683 -12.40616 36010 ft 464 kts 277°
2026-05-06 16:43 52.41174 -12.51159 36004 ft 464 kts 277°
2026-05-06 16:44 52.41655 -12.61704 36017 ft 465 kts 277°
2026-05-06 16:44 52.42129 -12.72269 36016 ft 465 kts 276°
2026-05-06 16:45 52.42590 -12.82767 36023 ft 465 kts 276°
2026-05-06 16:45 52.43048 -12.93328 36015 ft 466 kts 276°
2026-05-06 16:46 52.43499 -13.03973 36011 ft 470 kts 276°
2026-05-06 16:46 52.43939 -13.14686 36015 ft 472 kts 276°
2026-05-06 16:47 52.44371 -13.25447 36012 ft 474 kts 276°
2026-05-06 16:47 52.44795 -13.36234 36015 ft 475 kts 276°
2026-05-06 16:48 52.45210 -13.47054 36010 ft 476 kts 276°
2026-05-06 16:48 52.45615 -13.57872 36011 ft 475 kts 276°
2026-05-06 16:49 52.46010 -13.68687 36014 ft 475 kts 275°
2026-05-06 16:49 52.46385 -13.79425 36009 ft 471 kts 275°
2026-05-06 16:50 52.46755 -13.90161 36009 ft 472 kts 275°
2026-05-06 16:50 52.47118 -14.00915 36010 ft 472 kts 275°
2026-05-06 16:51 52.47413 -14.09854 36009 ft 472 kts 275°
2026-05-06 16:51 52.47759 -14.20621 36011 ft 473 kts 275°
2026-05-06 16:52 52.48095 -14.31397 36006 ft 473 kts 275°
2026-05-06 16:52 52.48421 -14.42175 36009 ft 473 kts 275°
2026-05-06 16:53 52.48738 -14.52963 36008 ft 473 kts 274°
2026-05-06 16:53 52.49047 -14.63744 36013 ft 473 kts 274°
2026-05-06 16:54 52.49346 -14.74436 36001 ft 462 kts 274°
2026-05-06 16:54 52.49635 -14.84935 36005 ft 462 kts 274°
2026-05-06 16:55 52.49922 -14.95469 36002 ft 462 kts 274°
2026-05-06 16:55 52.50411 -15.05940 36005 ft 460 kts 282°
2026-05-06 16:56 52.51819 -15.16188 35997 ft 460 kts 284°
2026-05-06 16:56 52.53197 -15.26466 36009 ft 461 kts 283°
2026-05-06 16:57 52.54462 -15.36810 36010 ft 462 kts 282°
2026-05-06 16:57 52.55690 -15.47179 36014 ft 462 kts 282°
2026-05-06 16:58 52.56909 -15.57557 36011 ft 463 kts 282°
2026-05-06 16:58 52.58118 -15.67940 36011 ft 462 kts 282°
2026-05-06 16:59 52.59317 -15.78337 36011 ft 462 kts 282°
2026-05-06 16:59 52.60506 -15.88724 36008 ft 462 kts 282°
2026-05-06 17:00 52.61680 -15.99049 36007 ft 462 kts 282°
2026-05-06 17:00 52.62854 -16.09446 36011 ft 462 kts 282°
2026-05-06 17:01 52.64017 -16.19818 35994 ft 458 kts 281°
2026-05-06 17:01 52.65160 -16.30100 35993 ft 457 kts 281°
2026-05-06 17:02 52.66297 -16.40433 35995 ft 458 kts 281°
2026-05-06 17:02 52.67419 -16.50722 35995 ft 456 kts 281°
2026-05-06 17:03 52.68534 -16.61018 35987 ft 457 kts 281°
2026-05-06 17:03 52.69645 -16.71361 35989 ft 459 kts 280°
2026-05-06 17:04 52.70742 -16.81664 35988 ft 455 kts 280°
2026-05-06 17:04 52.71831 -16.91973 35990 ft 457 kts 280°
2026-05-06 17:05 52.72913 -17.02324 35993 ft 459 kts 279°
2026-05-06 17:05 52.73985 -17.12667 35988 ft 455 kts 279°
2026-05-06 17:06 52.75044 -17.22962 35988 ft 456 kts 279°
2026-05-06 17:06 52.76097 -17.33304 35987 ft 457 kts 279°
2026-05-06 17:07 52.77141 -17.43637 35989 ft 458 kts 278°
2026-05-06 17:07 52.78179 -17.54022 35985 ft 459 kts 278°
2026-05-06 17:08 52.79210 -17.64432 35989 ft 459 kts 278°
2026-05-06 17:08 52.80230 -17.74818 35987 ft 457 kts 278°
2026-05-06 17:09 52.81241 -17.85213 35981 ft 459 kts 278°
2026-05-06 17:09 52.82246 -17.95638 35985 ft 460 kts 278°
2026-05-06 17:10 52.83242 -18.06069 35987 ft 459 kts 278°
2026-05-06 17:10 52.84228 -18.16510 35985 ft 460 kts 278°
2026-05-06 17:11 52.85207 -18.26966 35995 ft 460 kts 277°
2026-05-06 17:11 52.86176 -18.37423 35992 ft 460 kts 277°
2026-05-06 17:12 52.87134 -18.47875 35990 ft 459 kts 277°
2026-05-06 17:12 52.88086 -18.58327 35988 ft 459 kts 277°
2026-05-06 17:13 52.89025 -18.68782 35983 ft 459 kts 277°
2026-05-06 17:13 52.89961 -18.79234 35987 ft 459 kts 277°
2026-05-06 17:14 52.90885 -18.89693 35987 ft 459 kts 276°
2026-05-06 17:14 52.91797 -19.00153 35984 ft 459 kts 276°
2026-05-06 17:15 52.92700 -19.10615 35987 ft 459 kts 276°
2026-05-06 17:15 52.93586 -19.21009 36003 ft 459 kts 276°
2026-05-06 17:16 52.94470 -19.31483 35991 ft 458 kts 276°
2026-05-06 17:16 52.95343 -19.41944 35995 ft 458 kts 276°
2026-05-06 17:17 52.96207 -19.52410 35996 ft 458 kts 276°
2026-05-06 17:17 52.97062 -19.62881 35991 ft 458 kts 275°
2026-05-06 17:18 52.97908 -19.73361 35992 ft 459 kts 275°
2026-05-06 17:18 52.98746 -19.83858 35976 ft 459 kts 275°
2026-05-06 17:19 52.99581 -19.94365 35986 ft 459 kts 275°
2026-05-06 17:19 53.00208 -20.04893 35990 ft 458 kts 270°
2026-05-06 17:20 53.00595 -20.15448 35987 ft 458 kts 271°
2026-05-06 17:20 53.01032 -20.26012 36002 ft 459 kts 271°
2026-05-06 17:21 53.01461 -20.36590 35991 ft 459 kts 271°
2026-05-06 17:21 53.01879 -20.47180 35992 ft 459 kts 271°
2026-05-06 17:22 53.02286 -20.57768 35997 ft 459 kts 271°
2026-05-06 17:22 53.02677 -20.68328 35998 ft 459 kts 271°
2026-05-06 17:23 53.03059 -20.78924 35991 ft 460 kts 270°
2026-05-06 17:23 53.03428 -20.89525 35994 ft 460 kts 270°
2026-05-06 17:24 53.03789 -21.00128 35995 ft 460 kts 270°
2026-05-06 17:24 53.04145 -21.10731 35996 ft 460 kts 270°
2026-05-06 17:25 53.04484 -21.21345 35995 ft 460 kts 270°
2026-05-06 17:25 53.04814 -21.31958 35997 ft 460 kts 270°
2026-05-06 17:26 53.05137 -21.42573 36003 ft 460 kts 270°
2026-05-06 17:26 53.05448 -21.53077 36006 ft 460 kts 270°
2026-05-06 17:27 53.05752 -21.63692 36005 ft 460 kts 270°
2026-05-06 17:27 53.06047 -21.74303 36005 ft 459 kts 270°
2026-05-06 17:28 53.06332 -21.84913 36004 ft 459 kts 270°
2026-05-06 17:28 53.06608 -21.95527 36004 ft 460 kts 269°
2026-05-06 17:29 53.06875 -22.06144 36003 ft 460 kts 269°
2026-05-06 17:29 53.07132 -22.16769 36002 ft 460 kts 269°
2026-05-06 17:30 53.07380 -22.27392 36008 ft 460 kts 269°
2026-05-06 17:30 53.07618 -22.38012 36012 ft 460 kts 269°
2026-05-06 17:31 53.07846 -22.48639 36006 ft 460 kts 269°
2026-05-06 17:31 53.08067 -22.59283 36004 ft 460 kts 269°
2026-05-06 17:32 53.08278 -22.69926 36006 ft 461 kts 269°
2026-05-06 17:32 53.08389 -22.75742 36011 ft 461 kts 269°
2026-05-06 17:33 53.08444 -22.78728 36009 ft 461 kts 269°
2026-05-06 17:33 53.08637 -22.89381 36010 ft 461 kts 269°
2026-05-06 17:34 53.08818 -22.99974 36021 ft 460 kts 269°
2026-05-06 17:34 53.08992 -23.10628 36012 ft 461 kts 269°
2026-05-06 17:35 53.09155 -23.21196 36012 ft 460 kts 269°
2026-05-06 17:35 53.09310 -23.31856 36011 ft 460 kts 269°
2026-05-06 17:36 53.09525 -23.47834 36011 ft 460 kts 269°
2026-05-06 17:36 53.09655 -23.58448 36011 ft 460 kts 269°
2026-05-06 17:37 53.09760 -23.67632 36017 ft 460 kts 269°
2026-05-06 17:37 53.09889 -23.79712 36016 ft 460 kts 269°
2026-05-06 17:38 53.09975 -23.88550 36023 ft 460 kts 269°
2026-05-06 17:38 53.10070 -23.99235 36016 ft 460 kts 269°
2026-05-06 17:39 53.10155 -24.09827 36016 ft 460 kts 269°
2026-05-06 17:39 53.10230 -24.20517 36015 ft 460 kts 269°
2026-05-06 17:40 53.10296 -24.31128 36015 ft 460 kts 269°
2026-05-06 17:40 53.10353 -24.41786 36010 ft 460 kts 269°
2026-05-06 17:41 53.10401 -24.52497 36012 ft 460 kts 269°
2026-05-06 17:41 53.10438 -24.62975 36016 ft 460 kts 269°
2026-05-06 17:42 53.10466 -24.73620 36012 ft 460 kts 269°
2026-05-06 17:42 53.10485 -24.84286 36011 ft 460 kts 268°
2026-05-06 17:43 53.10495 -24.95001 36012 ft 460 kts 268°
2026-05-06 17:43 53.10494 -25.05587 36013 ft 460 kts 268°
2026-05-06 17:44 53.10484 -25.16222 36010 ft 461 kts 268°
2026-05-06 17:44 53.10466 -25.26437 36005 ft 461 kts 268°